Regional Weather Roundup
Issued by NWS Grand Forks, ND

Home | Current Version | Previous Version | Graphics & Text | Print | Product List | Glossary On
Versions: 1 2 3 4 5 6 7 8 9 10 11 12 13 14 15 16 17 18 19 20 21 22 23 24 25 26 27 28 29 30 31 32 33 34 35 36 37 38 39 40 41 42 43 44 45 46 47 48 49 50
721
ASUS43 KFGF 100131
RWRFGF
PRAIRIE TO PINES  WEATHER ROUNDUP
NATIONAL WEATHER SERVICE EASTERN NORTH DAKOTA/GRAND FORKS ND
700 PM CST FRI DEC 09 2016

 **SATELLITE DATA USED TO AUGMENT SKY COVER AT AUTOMATED STATIONS**
 *****  WEATHER ACROSS EASTERN NORTH DAKOTA  *****

CITY           SKY/WX    TMP DP  RH WIND       PRES   REMARKS
GRAND FORKS    MOCLDY    -9 -14  78 NW5       30.57R WCI -20
GRAND FRKS AFB CLOUDY    -4 -11  71 N7        30.56S WCI -18
DEVILS LAKE    CLEAR    -11 -15  82 NW12      30.52S WCI -31
FARGO          PTCLDY     0  -8  69 W7        30.57R WCI -13
WAHPETON ARPT  MOCLDY     1  -4  78 NW6       30.56S WCI -10
$$

 ***** WEATHER ACROSS CENTRAL AND WESTERN NORTH DAKOTA  *****

CITY           SKY/WX    TMP DP  RH WIND       PRES   REMARKS
BISMARCK       PTCLDY    -7 -12  79 NW3       30.54S
MINOT          CLOUDY   -10 -16  74 W8        30.51F WCI -26
JAMESTOWN      CLEAR    -10 -16  74 NW13      30.51F WCI -30
MINOT AFB      PTCLDY   -18 -24  74 W6        30.51F WCI -33
GARRISON         N/A    -12 -17  78 NW8       30.49F WCI -29
WILLISTON      CLOUDY   -12 -16  82 CALM      30.50F
DICKINSON      CLOUDY    -9 -16  71 CALM      30.39F
HETTINGER      CLOUDY    -7 -12  79 CALM      30.41F
$$

 *****  OTHER AIRPORT OBSERVATIONS IN OUR AREA  *****

CITY           SKY/WX    TMP DP  RH WIND       PRES   REMARKS
WALHALLA         N/A     -2  -2 100 NW9       30.56S WCI -18
GRAFTON AIRPOR CLOUDY    -4  -9  77 NW9       30.59S WCI -20
VALLEY CITY AR FAIR      -9 -13  84 NW8       30.54S WCI -26
CANDO          MOCLDY   -11 -17  77 NW7       30.54S WCI -26
CAVALIER APRT    N/A      0  -8  71 NW10      30.56F WCI -17
GWINNER        FAIR       0  -6  78 N9        30.54S WCI -16
SHEYENNE NWR     N/A     -3 -11  70 NW5       29.95S WCI -14
ROLLA          FAIR     -17 -20  83 W3        30.48S
 ***** THE ABOVE OBSERVATIONS ARE NON NWS ARE NOT QUALITY
       CONTROLLED AND MAY MIS-REPORT RAIN FOR SNOW...
$$

  *****  WEATHER ACROSS NORTHERN MINNESOTA  *****

CITY           SKY/WX    TMP DP  RH WIND       PRES   REMARKS
FLAG ISLAND    CLEAR      0  -4  85 W9        30.46S WCI -16
WARROAD        MOCLDY     0  -6  78 W7        30.48S WCI -13
ROSEAU         MOCLDY     0  -6  78 NW8       30.50S WCI -15
HALLOCK        CLOUDY    -2  -8  78 W5        30.55S WCI -12
THF RVR FALLS  PTCLDY    -6 -11  77 NW6       30.53R WCI -18
BAUDETTE       MOCLDY    -3  -9  75 W10       30.45S WCI -20
WASKISH        CLOUDY     3  -2  78 NW9       30.47R WCI -11
CROOKSTON      CLEAR     -6  -9  84 NW5       30.57R WCI -17
STEPHEN NDAWN    N/A     -2  -8  78 N7          N/A  WCI -16
GREENBUSH NDAW   N/A     -6  -8  92 W3          N/A
$$
  *****  WEATHER ACROSS CENTRAL AND WEST MINNESOTA  *****

CITY           SKY/WX    TMP DP  RH WIND       PRES   REMARKS
FOSSTON        CLOUDY     0  -6  78 W8        30.50R WCI -15
BEMIDJI        CLOUDY     1  -4  81 W7        30.46R WCI -12
PARK RAPIDS    CLOUDY     4  -6  63 NW8       30.45S WCI  -9
ELBOW LAKE     FAIR      -1  -4  85 W6        30.52F WCI -12
WADENA         MOCLDY     0  -4  85 W3        30.47S
DETROIT LAKES  CLOUDY     0  -4  85 NW7       30.50R WCI -13
MOORHEAD       CLOUDY     0  -6  78 NW8       30.56S WCI -15
FERGUS FALLS   CLOUDY     1  -2  85 NW7       30.58S WCI -11
MORRIS MN      PTCLDY     1  -2  85 NW7       30.52S WCI -11
STAPLES        CLOUDY     3  -2  78 W7        30.47S WCI  -9
$$
  *****  WEATHER ELSEWHERE ACROSS MINNESOTA  *****

CITY           SKY/WX    TMP DP  RH WIND       PRES   REMARKS
DULUTH         FLURRIES   7   1  76 NW6       30.41S WCI  -3
INTRNTL FALLS  CLEAR     -1  -7  75 W7        30.44S WCI -14
ELY            CLOUDY     3  -6  66 NW6       30.40S WCI  -8
CLOQUET        LGT SNOW   9   1  72 W5        30.43S WCI   0
WHEATON        CLEAR      3   0  85 W5        30.58R WCI  -6
BRAINERD       CLOUDY     8   1  73 W7        30.46S WCI  -3
HIBBING        FLURRIES   4  -1  80 CALM      30.41F
ALEXANDRIA     CLEAR      1  -4  79 NW8       30.49S WCI -13
SAINT CLOUD    CLOUDY     9   1  70 W10       30.50R WCI  -5
MINNEAPOLIS    MOCLDY    14   6  70 NW9       30.50S WCI   2
$$

  *****  WEATHER ACROSS SOUTH DAKOTA  *****

CITY           SKY/WX    TMP DP  RH WIND       PRES   REMARKS
SIOUX FALLS    LGT SNOW  14   9  80 CALM      30.49S
BROOKINGS      LGT SNOW   6   2  83 N7        30.47S FOG     WCI  -6
WATERTOWN      CLOUDY     1  -4  79 N6        30.47F WCI -10
HURON          CLOUDY     5   1  83 N5        30.54S WCI  -4
SISSETON         N/A      1  -4  79 NW9       30.54R WCI -14
ABERDEEN       CLEAR      1  -7  68 N8        30.55S WCI -13
MITCHELL       LGT SNOW   7   4  87 N8        30.54S FOG     WCI  -6
PIERRE         CLOUDY     1  -5  75 NE9       30.50F WCI -14
MOBRIDGE       MOCLDY    -3 -10  72 NW5       30.49S WCI -13
RAPID CITY     CLOUDY     1  -4  79 E7        30.33F WCI -12
$$

  *****  SOME WEATHER IN NEARBY STATES *****

CITY           SKY/WX    TMP DP  RH WIND       PRES   REMARKS
GLASGOW MT     CLOUDY    -4  -9  79 E8        30.40S WCI -19
GREAT FALLS MT CLOUDY    -5  -8  87 N6        30.12F WCI -18
CHEYENNE WY    CLOUDY    36  24  62 SW16      30.09R
SCOTTSBLUFF NE CLOUDY    15   5  64 E13       30.20F WCI   1
OMAHA NE       CLOUDY    22  11  62 SE8       30.52S WCI  12
DES MOINES IA  CLOUDY    23  10  57 SW5       30.54S WCI  17
DAVENPORT IA   CLEAR     19  13  77 W6        30.55S WCI  11
CHICAGO IL     MOCLDY    20  12  71 W9        30.51S WCI   9
EAU CLAIRE WI  LGT SNOW  16  13  88 W5        30.46S FOG     WCI   9
LA CROSSE WI   PTCLDY    19  10  68 SW6       30.51S WCI  11
$$

  *****  SOME NATIONAL WEATHER *****

CITY           SKY/WX    TMP DP  RH WIND       PRES   REMARKS
LA GUARDIA NY  PTCLDY    34  15  46 NW22G35   30.26R WCI  22
RALEIGH NC     CLEAR     32  13  45 CALM      30.44S
ATLANTA GA     CLEAR     35  17  47 NW13      30.43F
NEW ORLEANS LA CLEAR     48  23  37 NE8       30.48S
OKLAHOMA CITY  CLOUDY    34  14  43 S8        30.44S
ALBUQUERQUE NM CLOUDY    43  27  53 SW5       30.29R
SALT LAKE CITY CLOUDY    33  29  85 N5        30.11F
LOS ANGELES CA CLOUDY    59  59 100 W3        30.15F
BOISE ID       FRZ RAIN  31  29  92 W8        30.03F FOG     WCI  23
SEATTLE WA     CLOUDY    34  31  88 E16       29.89F WCI  24
$$

*** WEATHER ACROSS MANITOBA...SASKATCHEWAN AND ONTARIO ***
                ***ONTARIO***

CITY           SKY/WX    TMP DP  RH WIND       PRES   REMARKS
GERALDTON      MOCLDY     5   1  85 W2        30.31S
THUNDER BAY    FLURRIES  14   7  73 W7        30.39S WCI   4
SIOUX LOOKOUT  LGT SNOW   3   0  85 NW6       30.36  WCI  -8
TORONTO        PTCLDY    23  16  74 NW7       30.32R WCI  15
BIG TROUT LK   FLURRIES  -2  -6  84 NW10G21   30.39S WCI -19
PICKLE LAKE    FLURRIES  -4  -8  84 N5        30.33F WCI -15
DRYDEN         FLURRIES   3   0  85 W2        30.37S
KENORA         FLURRIES   0  -4  85 W8        30.41S WCI -15
$$
                *** MANITOBA***

CITY           SKY/WX    TMP DP  RH WIND       PRES   REMARKS
BRANDON        CLEAR    -13 -18  77 W9        30.53F WCI -31
DAUPHIN        CLEAR    -18 -24  76 W8        30.56S WCI -37
ISLAND LAKE    NOT AVBL
PILOT MOUND      N/A    -15 -18  84 NW9         N/A  WCI -33
THE PAS        FLURRIES  -6 -13  71 NW12      30.55F WCI -24
THOMPSON       FLURRIES  -6 -11  77 W6        30.53F WCI -18
WINNIPEG       PTCLDY    -4  -9  77 NW12      30.54S WCI -22
LYNN LAKE      CLOUDY    -6  -9  84 W2        30.48F
CHURCHILL      CLEAR     -8 -11  84 NW16      30.41F WCI -30
GILLAM         CLEAR     -8 -13  77 NW12G18   30.47F WCI -27
$$
                ***SASKATCHEWAN***

CITY           SKY/WX    TMP DP  RH WIND       PRES   REMARKS
ESTEVAN        PTCLDY   -18 -24  76 W8        30.49F WCI -37
KINDERSLEY     PTCLDY   -15 -18  84 SE8       30.38F WCI -32
LLOYDMINSTER   CRYSTALS -15 -18  84 S3        30.40F
PRINCE ALBERT  CLEAR    -13 -18  77 W3        30.52F
REGINA         PTCLDY   -11 -15  84 SW2       30.48F
YORKTON        CLEAR    -11 -17  77 W6        30.49F WCI -25
N. BATTLEFORD  CLEAR    -15 -20  76 SE5       30.49F WCI -27
LA RONGE       CLEAR    -20 -26  76 W3        30.53F
SASKATOON      CRYSTALS  -9 -15  77 NE3       30.51F
SWIFT CURRENT  CLOUDY    -6  -9  84 E7        30.31F WCI -20
$$
NOTE: THESE ARE AUTOMATED STATIONS WITH LIMITED QUALITY CONTROL
      "FAIR" INDICATES FEW OR NO CLOUDS BELOW 12,000 FEET WITH NO
      SIGNIFICANT WEATHER AND/OR OBSTRUCTIONS TO VISIBILITY.
      SKY/WX - SKY CONDITION AND SIGNIFICANT WEATHER.
      TMP - AIR TEMPERATURE.    DP   - DEWPOINT TEMPERATURE.
      RH  - RELATIVE HUMIDITY.  PRES - PRESSURE.
      HX  - HEAT INDEX.         WCI  - WIND CHILL INDEX.
$




USA.gov is the U.S. government's official web portal to all federal, state and local government web resources and services.